Weather History for Lexington, NE

Change the Weather History Date:

Thursday, December 19, 2013

  Actual Average Record
Temperature  
Mean Temperature 25 °F -  
Max Temperature 38 °F 36 °F 50 °F (2003)
Min Temperature 12 °F 13 °F -2 °F (1996)
Degree Days  
Heating Degree Days 40    
Moisture  
Dew Point 20 °F    
Average Humidity 76    
Maximum Humidity 85    
Minimum Humidity 61    
Precipitation  
Precipitation 0.00 in - - ()
Sea Level Pressure  
Sea Level Pressure 29.78 in    
Wind  
Wind Speed 12 mph (NNE)    
Max Wind Speed 23 mph    
Max Gust Speed 29 mph    
Visibility 10 miles    
Events Snow    
Averages and records for this station are not official NWS values.
T = Trace of Precipitation, MM = Missing Value Source: NWS Daily Summary

Daily Weather History Graph

Daily Weather History Graph

Search for Another Location

Airport:

Trip Planner

Search our weather history database for the weather conditions in past years. The results will help you decide how hot, cold, wet, or windy it might be!

Date:

Astronomy

Dec. 19, 2013 Rise Set
Actual Time 7:58 AM CST 5:13 PM CST
Civil Twilight 7:27 AM CST 5:44 PM CST
Nautical Twilight 6:53 AM CST 6:19 PM CST
Astronomical Twilight 6:20 AM CST 6:52 PM CST
Moon 7:41 PM CST (12/19) 9:18 AM CST (12/19)
Length of Visible Light 10h 16m
Length of Day
9h 14m
Waning Gibbous, 95% of the Moon is Illuminated
Dec 19
Waning Gibbous
Dec 25
Last Quarter
Jan 1
New
Jan 7
First Quarter
Jan 15
Full

Hourly Weather History & Observations

Time (CST) Temp. Windchill Dew Point Humidity Pressure Visibility Wind Dir Wind Speed Gust Speed Precip Events Conditions
12:15 AM 28.0 °F 20.8 °F 21.6 °F 77% 29.74 in 10.0 mi WNW 6.9 mph - N/A   Clear
12:35 AM 28.8 °F 20.9 °F 22.5 °F 77% 29.74 in 10.0 mi WNW 8.1 mph - N/A   Clear
12:55 AM 29.3 °F 23.2 °F 23.0 °F 77% 29.74 in 10.0 mi WNW 5.8 mph - N/A   Clear
1:15 AM 29.3 °F 23.2 °F 23.4 °F 78% 29.73 in 10.0 mi NW 5.8 mph - N/A   Clear
1:35 AM 30.2 °F 24.3 °F 23.9 °F 77% 29.73 in 10.0 mi NNW 5.8 mph - N/A   Clear
1:55 AM 31.5 °F 26.8 °F 24.3 °F 75% 29.74 in 10.0 mi NNW 4.6 mph - N/A   Clear
2:15 AM 36.5 °F 29.7 °F 26.4 °F 67% 29.74 in 10.0 mi NNE 9.2 mph - N/A   Clear
2:35 AM 36.5 °F 29.7 °F 26.1 °F 66% 29.73 in 10.0 mi NNE 9.2 mph - N/A   Clear
2:55 AM 37.9 °F 30.9 °F 26.1 °F 62% 29.73 in 10.0 mi NE 10.4 mph - N/A   Clear
3:15 AM 38.3 °F 30.9 °F 26.1 °F 61% 29.73 in 10.0 mi NE 11.5 mph - N/A   Clear
3:35 AM 38.3 °F 33.2 °F 26.2 °F 62% 29.75 in 10.0 mi ENE 6.9 mph - N/A   Clear
3:55 AM 37.8 °F 30.2 °F 26.2 °F 63% 29.73 in 10.0 mi NE 11.5 mph - N/A   Clear
4:15 AM 37.8 °F 31.3 °F 26.6 °F 64% 29.75 in 10.0 mi NE 9.2 mph 16.1 mph N/A   Clear
4:35 AM 37.4 °F 29.8 °F 27.0 °F 66% 29.74 in 10.0 mi NE 11.5 mph - N/A   Clear
4:55 AM 36.9 °F 29.6 °F 27.0 °F 67% 29.74 in 10.0 mi NE 10.4 mph - N/A   Clear
5:15 AM 36.5 °F 28.7 °F 27.1 °F 69% 29.74 in 10.0 mi NE 11.5 mph - N/A   Clear
5:35 AM 36.5 °F 29.2 °F 27.3 °F 69% 29.75 in 10.0 mi NE 10.4 mph 18.4 mph N/A   Clear
5:55 AM 36.5 °F 27.8 °F 27.5 °F 70% 29.74 in 10.0 mi NE 13.8 mph 19.6 mph N/A   Clear
6:15 AM 36.0 °F 26.7 °F 27.3 °F 71% 29.73 in 10.0 mi NE 15.0 mph - N/A   Clear
6:35 AM 35.6 °F 27.5 °F 27.3 °F 72% 29.74 in 10.0 mi NE 11.5 mph - N/A   Clear
6:55 AM 34.9 °F 26.6 °F 27.5 °F 74% 29.75 in 10.0 mi NE 11.5 mph - N/A   Clear
7:15 AM 34.3 °F 26.5 °F 27.3 °F 76% 29.76 in 10.0 mi NNE 10.4 mph - N/A   Clear
7:35 AM 33.3 °F 23.2 °F 27.3 °F 79% 29.76 in 10.0 mi NE 15.0 mph - N/A   Clear
7:55 AM 32.4 °F 24.0 °F 27.0 °F 80% 29.77 in 10.0 mi NE 10.4 mph - N/A   Clear
8:15 AM 32.0 °F 22.1 °F 27.0 °F 82% 29.76 in 10.0 mi NE 13.8 mph 18.4 mph N/A   Clear
8:35 AM 31.3 °F 22.7 °F 26.4 °F 82% 29.76 in 10.0 mi NE 10.4 mph - N/A   Clear
8:55 AM 30.2 °F 21.3 °F 26.1 °F 85% 29.77 in 10.0 mi NE 10.4 mph - N/A   Clear
9:15 AM 30.2 °F 23.4 °F 26.2 °F 85% 29.77 in 10.0 mi NE 6.9 mph - N/A   Clear
9:35 AM 30.2 °F 20.2 °F 26.2 °F 85% 29.77 in 10.0 mi NE 12.7 mph 19.6 mph N/A   Clear
9:55 AM 30.9 °F 18.7 °F 26.2 °F 83% 29.76 in 10.0 mi NE 19.6 mph - N/A   Scattered Clouds
10:15 AM 31.1 °F 20.5 °F 26.4 °F 83% 29.77 in 10.0 mi ENE 15.0 mph 19.6 mph N/A   Mostly Cloudy
10:35 AM 31.8 °F 20.6 °F 26.1 °F 79% 29.78 in 10.0 mi NE 17.3 mph 21.9 mph N/A   Overcast
10:55 AM 32.0 °F 21.2 °F 26.2 °F 79% 29.78 in 10.0 mi ENE 16.1 mph 19.6 mph N/A   Mostly Cloudy
11:15 AM 33.1 °F 22.2 °F 26.2 °F 76% 29.77 in 10.0 mi ENE 17.3 mph - N/A   Scattered Clouds
11:35 AM 32.7 °F 23.4 °F 25.9 °F 76% 29.76 in 10.0 mi NE 12.7 mph - N/A   Clear
11:55 AM 34.0 °F 24.2 °F 25.7 °F 72% 29.74 in 10.0 mi ENE 15.0 mph - N/A   Clear
12:15 PM 35.1 °F 24.8 °F 25.5 °F 68% 29.71 in 10.0 mi ENE 17.3 mph 23.0 mph N/A   Clear
12:35 PM 34.7 °F 24.7 °F 25.3 °F 69% 29.71 in 10.0 mi ENE 16.1 mph 21.9 mph N/A   Clear
12:55 PM 34.9 °F 24.9 °F 25.0 °F 67% 29.69 in 10.0 mi ENE 16.1 mph - N/A   Clear
1:15 PM 35.1 °F 26.9 °F 25.0 °F 67% 29.73 in 10.0 mi NE 11.5 mph - N/A   Clear
1:35 PM 34.0 °F 25.0 °F 24.3 °F 68% 29.71 in 10.0 mi NNE 12.7 mph - N/A   Clear
1:55 PM 33.3 °F 22.8 °F 23.9 °F 69% 29.69 in 10.0 mi NE 16.1 mph - N/A   Clear
2:15 PM 32.0 °F 22.1 °F 23.5 °F 71% 29.70 in 10.0 mi NE 13.8 mph - N/A   Scattered Clouds
2:35 PM 30.2 °F 18.9 °F 23.2 °F 75% 29.69 in 10.0 mi NE 16.1 mph - N/A   Mostly Cloudy
2:55 PM 28.8 °F 17.9 °F 23.0 °F 79% 29.71 in 10.0 mi NNE 13.8 mph - N/A   Overcast
3:15 PM 27.0 °F 14.7 °F 21.6 °F 80% 29.71 in 10.0 mi NNE 16.1 mph 20.7 mph N/A   Overcast
3:35 PM 24.8 °F 11.5 °F 20.3 °F 83% 29.72 in 7.0 mi NNE 17.3 mph 21.9 mph N/A   Overcast
3:55 PM 24.4 °F 11.0 °F 20.1 °F 84% 29.74 in 10.0 mi NNE 17.3 mph - N/A   Overcast
4:15 PM 23.7 °F 11.0 °F 19.4 °F 84% 29.75 in 10.0 mi NNE 15.0 mph 21.9 mph N/A   Overcast
4:35 PM 23.4 °F 9.2 °F 18.3 °F 81% 29.76 in 10.0 mi NNE 18.4 mph - N/A   Overcast
4:55 PM 22.5 °F 9.4 °F 17.8 °F 82% 29.79 in 10.0 mi North 15.0 mph 19.6 mph N/A   Overcast
5:15 PM 21.0 °F 5.4 °F 16.0 °F 81% 29.80 in 10.0 mi North 20.7 mph - N/A   Overcast
5:35 PM 19.8 °F 5.4 °F 14.2 °F 79% 29.81 in 10.0 mi North 16.1 mph 27.6 mph N/A   Overcast
5:55 PM 18.5 °F 2.4 °F 13.1 °F 79% 29.82 in 10.0 mi NNE 19.6 mph 25.3 mph N/A   Overcast
6:15 PM 17.6 °F 1.3 °F 11.8 °F 78% 29.83 in 10.0 mi NNE 19.6 mph 25.3 mph N/A   Overcast
6:35 PM 17.4 °F 0.2 °F 11.5 °F 78% 29.84 in 10.0 mi North 21.9 mph 25.3 mph N/A   Overcast
6:55 PM 16.7 °F 2.0 °F 10.9 °F 78% 29.86 in 10.0 mi North 15.0 mph 21.9 mph N/A Snow Light Snow
7:15 PM 15.8 °F -0.6 °F 9.5 °F 76% 29.88 in 10.0 mi North 18.4 mph 23.0 mph N/A   Overcast
7:35 PM 15.3 °F -2.2 °F 9.3 °F 77% 29.88 in 10.0 mi North 20.7 mph 25.3 mph N/A Snow Light Snow
7:55 PM 14.5 °F -1.3 °F 8.8 °F 78% 29.89 in 10.0 mi North 16.1 mph - N/A   Overcast
8:15 PM 14.0 °F -3.0 °F 8.6 °F 79% 29.89 in 7.0 mi North 18.4 mph 24.2 mph N/A Snow Light Snow
8:35 PM 13.8 °F -3.2 °F 7.7 °F 77% 29.89 in 10.0 mi North 18.4 mph - N/A   Overcast
8:55 PM 13.5 °F -3.7 °F 7.7 °F 78% 29.90 in 10.0 mi North 18.4 mph 26.5 mph N/A Snow Light Snow
9:15 PM 13.1 °F -1.4 °F 7.7 °F 79% 29.92 in 7.0 mi North 12.7 mph - N/A Snow Light Snow
9:35 PM 12.9 °F -3.4 °F 7.7 °F 80% 29.92 in 7.0 mi North 16.1 mph 24.2 mph N/A Snow Light Snow
9:55 PM 12.7 °F -4.6 °F 7.7 °F 80% 29.94 in 10.0 mi North 18.4 mph 24.2 mph N/A   Overcast
10:15 PM 12.7 °F -5.1 °F 7.7 °F 80% 29.95 in 5.0 mi NNW 19.6 mph 23.0 mph N/A Snow Light Snow
10:35 PM 12.7 °F -6.0 °F 7.7 °F 80% 29.94 in 5.0 mi NNW 21.9 mph 25.3 mph N/A Snow Light Snow
10:55 PM 12.7 °F -5.5 °F 8.1 °F 82% 29.92 in 4.0 mi North 20.7 mph 25.3 mph N/A Snow Light Snow
11:15 PM 12.4 °F -4.6 °F 7.3 °F 80% 29.94 in 7.0 mi North 17.3 mph 23.0 mph N/A Snow Light Snow
11:35 PM 12.2 °F -5.3 °F 7.2 °F 80% 29.95 in 7.0 mi North 18.4 mph 26.5 mph N/A Snow Light Snow
11:55 PM 12.2 °F -7.1 °F 7.2 °F 80% 29.94 in 10.0 mi North 23.0 mph 28.8 mph N/A   Overcast